Weather Roundup
Issued by NWS Springfield, MO

Home | Current Version | Previous Version | Text Only | Print | Product List | Glossary On
Versions: 1 2 3 4 5 6 7 8 9 10 11 12 13 14 15 16 17 18 19 20 21 22 23 24 25 26 27 28 29 30 31 32 33 34 35 36 37 38 39 40 41 42 43 44 45 46 47 48 49 50
000
NZUS99 KSGF 030707
HRRSGF

HOURLY WEATHER
NATIONAL WEATHER SERVICE SPRINGFIELD MO
100 AM CST SAT DEC 03 2016

......SGF CWA......

CITY           SKY/WX    TMP DP  RH WIND       PRES   REMARKS
SPRINGFIELD    NOT AVBL
BRANSON        CLOUDY    45  32  61 E6        30.30S

......SURROUNDING SGF CWA......

CITY           SKY/WX    TMP DP  RH WIND       PRES   REMARKS
CHANUTE        NOT AVBL
COFFEYVILLE    CLOUDY    46  29  51 NE9       30.27F
GROVE OK       CLOUDY    48  36  61 NE3       30.28F
ROGERS AR      MOCLDY    48  32  53 E7        30.27F
SILOAM SPRINGS CLOUDY    48  30  49 E3        30.25F
HARRISON AR    CLOUDY    43  33  68 CALM      30.29S
NEAR YELLVILLE CLOUDY    45  30  57 NE3       30.29R

......KANSAS AND MISSOURI......

CITY           SKY/WX    TMP DP  RH WIND       PRES   REMARKS
KANSAS CTY INT NOT AVBL
DOWNTOWN KC    PTCLDY    33  29  85 CALM      30.36F
COLUMBIA       PTCLDY    34  27  75 E5        30.35F WCI  30
ST JOSEPH      NOT AVBL
ST LOUIS       PTCLDY    35  28  75 CALM      30.37F
SPIRIT OF STL  CLEAR     27  26  96 CALM      30.37S

......TENNESSEE......

CITY           SKY/WX    TMP DP  RH WIND       PRES   REMARKS
MEMPHIS        CLOUDY    50  33  52 E7        30.30R
NASHVILLE      MOCLDY    40  31  70 N7        30.33F

......ARKANSAS.......

CITY           SKY/WX    TMP DP  RH WIND       PRES   REMARKS
FAYETTEVILLE   CLOUDY    43  36  76 CALM      30.25F
FT SMITH       CLOUDY    50  36  58 NE5       30.24F
LITTLE ROCK    CLOUDY    48  39  71 NE8       30.27F

......OKLAHOMA.......

CITY           SKY/WX    TMP DP  RH WIND       PRES   REMARKS
TULSA          NOT AVBL
MCALESTER      CLOUDY    49  44  83 NE3       30.22F
OKLAHOMA CITY  LGT RAIN  47  45  93 NE7       30.21F

......IOWA............

CITY           SKY/WX    TMP DP  RH WIND       PRES   REMARKS
DES MOINES     CLOUDY    36  30  79 S3        30.36R
QUAD CITIES    CLOUDY    34  25  69 W5        30.34R WCI  30

......ILLINOIS........

CITY           SKY/WX    TMP DP  RH WIND       PRES   REMARKS
QUINCY         CLOUDY    35  31  85 CALM      30.36R
CHICAGO        CLOUDY    33  24  69 SW3       30.31R




USA.gov is the U.S. government's official web portal to all federal, state and local government web resources and services.